Location: ?????????
(55.0848°N, 38.5780°E)
Time: 16:45:02
(UTC+00:00)

Daily predictions for brighter satellites

Satellite Brightness Start Highest point End
(mag) Time Altitude Azimuth Time Altitude Azimuth Time Altitude Azimuth
Cosmos 2366 rocket 4.1 16:54:52 10° N 17:01:15 80° ENE 17:07:38 10° SSE
Cosmos 1300 Rocket 4.2 17:00:09 10° SSE 17:04:08 36° E 17:08:11 10° NNE
CZ-4B R/B 3.6 16:59:09 10° S 17:04:48 74° WSW 17:10:25 10° NNW
Cosmos 2344 3.5 16:57:27 10° SW 17:04:49 74° SE 17:12:25 10° NE
NOSS 2-3 (D) 3.7 17:01:47 10° SSW 17:05:16 40° SE 17:09:17 10° ENE
USA 186 2.0 17:02:33 10° S 17:05:35 66° WSW 17:08:37 10° NNW
SPOT 1/Viking Rocket 4.1 17:00:34 10° S 17:05:45 66° WSW 17:10:58 10° NNW
DELTA 2 DEB (DPAF) 4.2 17:02:29 10° NNE 17:06:39 51° ESE 17:10:47 10° S
SJ 16-02 1.5 17:02:26 10° NNW 17:06:47 79° WSW 17:11:06 10° SSE
ATLAS 3B R/B 4.0 17:02:19 10° SE 17:06:51 18° ESE 17:11:32 10° ENE
Cosmos 2218 Rocket 4.1 17:01:36 10° N 17:08:03 84° E 17:14:27 10° SSE
Cosmos 1455 2.2 17:05:15 10° S 17:08:43 51° E 17:12:13 10° NNE
Cosmos 1953 2.1 17:07:12 10° S 17:10:59 75° E 17:14:51 10° NNE
USA 281 3.3 17:07:45 10° SSE 17:14:20 85° WSW 17:20:59 10° NNW
Cosmos 2098 Rocket 3.8 17:10:58 10° SSE 17:15:36 36° E 17:19:29 10° NNE
NOSS 2-2 (E) 2.8 17:12:38 10° SSW 17:15:42 53° SE 17:18:55 10° ENE
Cosmos 2278 Rocket 4.0 17:11:15 10° WSW 17:16:27 36° NW 17:21:42 10° NNE
Cosmos 2263 Rocket 4.3 17:13:04 10° NNW 17:16:50 18° NNE 17:20:34 10° NE
Cosmos 1821 Rocket 4.1 17:10:50 10° N 17:17:02 63° ENE 17:23:07 10° SSE
Terra 2.9 17:17:23 10° ESE 17:21:24 29° ENE 17:25:27 10° N
CZ-4C R/B 3.9 17:18:35 10° NE 17:21:42 29° E 17:24:43 10° SSE
Genesis I 4.2 17:23:18 10° NW 17:26:38 33° NNE 17:29:58 10° E
Okean-O 2.6 17:22:28 10° SSE 17:26:52 73° ENE 17:31:17 10° NNW
NOSS 2-2 (D) 2.9 17:26:46 10° SSW 17:29:50 50° SE 17:32:59 10° ENE
Ariane Rocket 3.9 17:26:24 11° ESE 17:30:45 34° ENE 17:35:16 10° N
NOSS 2-3 (E) 3.3 17:28:02 10° SW 17:31:44 68° SE 17:36:09 10° NE
Cosmos 1486 Rocket 4.1 17:27:55 10° NNW 17:33:09 65° ENE 17:38:02 12° SE
SPOT 3 Rocket 4.4 17:30:51 12° ESE 17:35:11 34° ENE 17:39:51 10° N
BREEZE-M R/B 3.0 17:35:29 10° WSW 17:37:43 25° S 17:38:57 17° SE
Cosmos 1825 4.1 17:35:11 10° NNW 17:38:11 28° W 17:41:11 10° SSW
Cosmos 1025 Rocket 4.4 17:38:43 10° NNW 17:42:48 40° W 17:46:53 10° SSW
Cosmos 2084 Rocket 4.3 17:39:25 10° WSW 17:43:29 50° NNW 17:47:24 10° NE
USA 245 4.3 17:39:19 11° SE 17:44:22 50° ENE 17:48:52 10° N
Cosmos 1656 Rocket 3.8 17:39:21 10° SW 17:44:53 80° NW 17:50:24 10° NNE
USA 267 3.3 17:39:07 10° ENE 17:45:43 89° S 17:52:17 10° WSW
USA 129 2.6 17:45:20 10° N 17:47:59 62° WNW 17:50:33 10° SSW
Okean O Rocket 2.8 17:45:55 10° S 17:50:02 41° W 17:54:12 10° NNW
Cosmos 1302 Rocket 4.0 17:45:32 10° SSW 17:50:49 86° ESE 17:56:06 10° NNE
Cosmos 1975 Rocket 3.8 17:49:22 10° NNW 17:53:38 54° W 17:57:50 10° S
Resurs 01 Rocket 3.0 17:51:01 10° SSW 17:55:08 38° W 17:59:17 10° NNW
Iridium 4 Rocket 4.4 17:51:43 15° SE 17:55:44 37° E 18:00:58 10° NNE
Cosmos 2227 Rocket 3.4 17:52:34 10° NNW 17:57:41 32° NE 18:02:08 13° E
CZ-4C R/B 3.3 17:52:21 10° NW 17:58:27 52° NNE 18:05:51 11° E
ATLAS CENTAUR R/B 3.0 18:00:24 10° NW 18:03:25 23° NNE 18:06:31 10° ENE
Cosmos 1934 Rocket 4.0 17:57:39 10° N 18:03:45 63° ENE 18:08:46 16° SSE
ATLAS 5 CENTAUR R/B 2.1 18:01:59 15° S 18:04:02 24° ESE 18:07:12 10° ENE
Landsat 4 3.4 18:03:43 17° SSE 18:06:18 90° SW 18:09:52 10° NNW
NOSS 3-1 (A) 3.9 18:06:14 10° S 18:10:30 27° ESE 18:15:26 10° ENE
Cosmos 1346 Rocket 4.2 18:07:53 10° SW 18:11:29 38° WNW 18:15:06 10° N
SPOT 5 3.2 18:08:59 11° S 18:14:10 76° WSW 18:19:29 10° NNW
NOSS 2-2 (C) 3.0 18:13:46 10° WSW 18:16:53 69° NW 18:20:15 10° NE
Cosmos 1943 Rocket 4.4 18:14:20 10° W 18:19:02 27° NNW 18:23:47 10° NNE
Cosmos 1536 Rocket 3.5 18:15:04 10° N 18:19:29 86° E 18:22:32 20° SSE
ERS-1 Rocket 2.9 18:16:37 18° SSE 18:20:27 88° ENE 18:25:31 10° NNW
COSMOS 2455 3.2 18:15:12 10° NW 18:21:10 58° NE 18:25:16 21° ESE
CENTAUR R/B 3.7 18:16:56 10° WNW 18:24:09 53° NNE 18:32:41 10° E
Cosmos 2151 Rocket 3.6 18:22:34 17° S 18:25:50 62° E 18:30:14 10° NNE
Cosmos 1777 Rocket 4.0 18:21:20 10° NNW 18:26:39 86° ENE 18:29:54 24° SSE
Cosmos 1461 4.2 18:23:07 10° WSW 18:26:58 39° NNW 18:30:44 10° NE
Cosmos 2297 Rocket 2.4 18:21:35 10° NNW 18:27:14 64° NE 18:30:35 25° SE
ARGOS Delta rocket 4.4 18:24:39 24° SE 18:27:48 56° ENE 18:33:08 10° N
SL-27 R/B 3.9 18:26:47 10° NW 18:29:17 25° WSW 18:30:59 15° SSW
NOSS 3-1 (C) 3.1 18:27:26 10° SSW 18:32:29 64° SE 18:38:40 10° NE
Cosmos 2219 4.3 18:28:34 10° NNW 18:33:45 34° NE 18:37:28 17° E
SL-4 R/B 1.8 18:30:52 10° WSW 18:34:19 47° S 18:34:56 41° SE
Cosmos 2369 Rocket 3.1 18:29:43 10° SW 18:35:16 52° NW 18:40:48 10° NNE
Cosmos 1354 Rocket 4.0 18:31:05 10° NNW 18:36:27 86° WSW 18:39:31 26° SSE
Cosmos 1503 Rocket 4.2 18:31:30 10° NNW 18:36:52 70° WSW 18:40:15 23° SSE
H-2A R/B 4.1 18:39:07 16° ENE 18:40:07 18° ENE 18:42:43 10° NNE
Cosmos 371 Rocket 3.5 18:38:10 10° NNW 18:42:56 65° WSW 18:45:33 26° S
SJ 16-02 4.1 18:42:35 10° WNW 18:44:23 12° W 18:46:11 10° WSW
Cosmos 1992 Rocket 4.3 18:40:42 10° SW 18:45:54 71° WNW 18:51:10 10° NNE
Okean 2 Rocket 3.1 18:45:50 18° SSW 18:49:14 87° WNW 18:53:46 10° NNE
Spot 2 Rocket 3.7 18:46:51 23° S 18:50:02 70° WSW 18:55:06 10° NNW
ARIANE 5 R/B 3.8 18:49:45 25° E 18:51:14 31° ENE 18:55:12 10° N
Cosmos 1892 Rocket 3.6 18:48:55 10° N 18:53:14 60° ENE 18:54:34 40° SE
ATLAS 3B R/B 2.8 18:49:07 10° SSW 18:56:10 62° SE 19:03:40 10° NE
Terra 2.3 18:55:55 22° S 18:58:47 54° W 19:03:27 10° NNW
Cosmos 304 Rocket 4.1 18:55:37 10° NNW 19:00:19 57° WSW 19:02:28 30° S
Nadezhda 3 Rocket 4.5 18:54:34 10° SSW 19:00:38 60° WNW 19:06:47 10° N
Cosmos 2263 Rocket 3.3 18:57:15 10° NNW 19:02:27 36° NE 19:05:39 20° E
Genesis I 3.2 18:59:42 10° NW 19:03:17 56° SW 19:03:48 50° SSW
Sich 1 Rocket 3.9 19:00:53 16° SSW 19:04:18 64° WNW 19:08:45 10° N
Cosmos 1656 4.0 19:02:52 34° SSE 19:04:31 43° ESE 19:09:43 10° NE
NOSS 8 (E) 4.1 19:02:13 10° NW 19:05:11 78° SW 19:05:21 75° S
MOS 1 Rocket 3.0 19:06:13 41° S 19:07:41 81° WSW 19:12:03 10° NNW
Cosmos 1605 Rocket 4.1 19:02:03 10° NNW 19:08:29 81° W 19:12:10 27° S
Ariane Rocket 3.7 19:06:32 22° SSW 19:09:33 49° W 19:14:29 10° NNW
NOSS 8 (H) 4.1 19:07:19 10° NW 19:10:17 88° NE 19:10:22 84° ESE
Cosmos 2173 Rocket 4.4 19:06:06 10° N 19:12:18 50° ENE 19:14:55 32° SE
Cosmos 332 Rocket 3.7 19:08:45 10° NNW 19:13:38 84° WSW 19:15:12 44° SSE
Cosmos 1437 Rocket 2.6 19:10:07 10° NNW 19:14:00 78° ENE 19:14:35 61° SE
SPOT 3 Rocket 4.2 19:11:28 24° SSW 19:14:26 51° W 19:19:32 10° NNW
ALOS 2 4.3 19:14:43 19° E 19:15:56 21° ENE 19:19:12 10° N
Cosmos 2344 4.3 19:12:33 10° W 19:19:39 52° NNW 19:27:45 10° ENE
Cosmos 1763 Rocket 3.9 19:25:21 40° ESE 19:25:34 40° ESE 19:30:22 10° NE
Okean 1 Rocket 3.5 19:24:18 27° SSW 19:26:35 62° WNW 19:31:03 10° N
Cosmos 405 Rocket 2.8 19:28:40 59° ENE 19:28:40 59° ENE 19:32:09 10° NNE
USA 267 3.4 19:22:10 10° E 19:28:43 77° N 19:35:16 10° W
CZ-2C R/B 4.4 19:24:42 10° NNE 19:29:08 38° E 19:29:16 38° E
Cosmos 990 Rocket 4.0 19:24:20 10° NNW 19:29:32 76° WSW 19:31:04 46° S
Cosmos 1455 Rocket 3.0 19:30:52 60° SSE 19:31:31 72° E 19:35:56 10° NNE
Aureole 1 Rocket 2.7 19:29:19 10° NNW 19:31:53 57° NNW 19:31:53 57° NNW
NOSS 3-2 (A) 4.2 19:27:36 10° NW 19:34:22 64° NNE 19:39:59 21° ESE
MetOp-A 4.3 19:39:03 34° SW 19:39:48 38° W 19:43:24 10° NNW
Cosmos 2016 Rocket 4.4 19:34:22 10° N 19:40:18 49° ENE 19:42:14 37° ESE
Cosmos 2100 Rocket 4.0 19:34:57 10° N 19:41:22 76° ENE 19:43:38 43° SSE
ATLAS CENTAUR R/B 1.2 19:38:03 10° NW 19:41:47 69° NE 19:41:52 68° NE
Cosmos 2227 Rocket 2.2 19:36:35 10° NW 19:42:17 77° WSW 19:43:56 48° SSE
Cosmos 2360 4.4 19:42:17 46° SE 19:42:55 48° ESE 19:48:22 10° NE
Cosmos 1727 Rocket 4.0 19:40:46 41° SSE 19:43:04 71° E 19:49:20 10° NNE
Landsat 5 4.0 19:42:31 10° N 19:46:48 57° WNW 19:48:24 34° SW
CZ-4C R/B 2.8 19:40:43 10° NW 19:47:28 79° SW 19:50:57 38° SE
ATLAS 5 CENTAUR R/B 1.7 19:44:04 10° WSW 19:47:35 59° NNW 19:51:42 10° NE
Cosmos 1844 Rocket 4.5 19:44:09 10° NNW 19:48:50 26° NNE 19:53:11 11° E
Cosmos 468 Rocket 4.3 19:49:18 44° ESE 19:49:18 44° ESE 19:54:15 10° NE
Cosmos 44 3.9 19:50:43 43° ESE 19:50:43 43° ESE 19:55:14 10° NE
Cosmos 1980 Rocket 3.5 19:52:26 23° E 19:52:26 23° E 19:56:06 10° NE
Cosmos 1869 4.4 19:52:49 31° ENE 19:52:49 31° ENE 19:55:25 10° NNE
H-2A R/B 4.4 19:50:22 10° ENE 19:51:05 11° ENE 19:51:05 11° ENE
Cosmos 2228 3.9 19:55:26 34° ENE 19:55:26 34° ENE 19:58:43 10° NNE
USA 81 4.0 19:54:56 50° SSW 19:56:23 86° W 20:01:42 10° N
Cosmos 372 Rocket 3.9 19:53:12 10° NNW 19:58:28 82° ENE 19:59:30 58° SE
Cosmos 2058 3.0 19:54:32 10° NNW 19:58:33 60° W 19:58:42 59° WSW
Cosmos 540 Rocket 3.5 20:00:18 55° ESE 20:00:26 55° ESE 20:05:27 10° NNE
NOSS 3-1 (A) 3.3 19:55:19 10° SW 20:00:35 81° NW 20:07:07 10° NE
Cosmos 2123 Rocket 4.3 20:00:05 43° SE 20:01:28 50° E 20:07:34 10° NNE
Cosmos 1697 Rocket 2.9 20:02:11 50° SE 20:02:30 50° ESE 20:07:59 10° NE
Cosmos 1000 Rocket 4.4 20:01:51 49° SSE 20:03:31 71° E 20:09:38 10° NNE
Meteor 2-15 4.4 19:59:36 10° NNW 20:05:47 84° ENE 20:07:30 51° SSE
Meteor 2-15 Rocket 4.5 20:00:09 10° N 20:06:19 68° ENE 20:07:58 48° SE
COSMOS 2455 3.4 20:01:21 10° NW 20:07:03 44° WSW 20:08:24 38° SSW
USA 229 DEB 3.5 20:06:44 45° S 20:08:34 62° SE 20:15:22 10° NE
Cosmos 1544 4.5 20:05:42 10° N 20:07:19 29° N 20:07:19 29° N
USA 229 3.5 20:06:53 45° S 20:08:39 61° SE 20:15:29 10° NE
Cosmos 1626 Rocket 3.5 20:05:18 10° NNW 20:09:42 74° W 20:09:54 72° SW
Cosmos 2297 Rocket 3.3 20:06:02 10° NW 20:10:57 31° WSW 20:12:24 28° SW
SL-4 R/B 4.3 20:09:33 10° W 20:09:47 11° W 20:09:47 11° W
Cosmos 2061 Rocket 4.2 20:07:07 10° N 20:13:33 63° ENE 20:15:22 46° SE
Cosmos 1937 Rocket 3.4 20:08:44 10° NNW 20:14:05 86° WSW 20:14:55 64° SSE
H-2A R/B 2.6 20:15:10 59° WNW 20:15:10 59° WNW 20:18:32 10° NNW
CENTAUR R/B 3.1 20:07:43 10° NW 20:15:38 86° SW 20:19:49 37° SE
Meteor 2-3 Rocket 3.6 20:10:46 10° NNW 20:16:27 87° WSW 20:17:38 58° S
Cosmos 2219 3.1 20:12:43 10° NW 20:18:23 72° WSW 20:19:22 58° S
Cosmos 1898 Rocket 3.6 20:13:21 10° NNW 20:18:34 63° WSW 20:19:15 57° SSW
Okean 1-7 Rocket 3.5 20:15:22 10° NNW 20:19:55 87° W 20:20:03 84° SSW
NOSS 3-1 (C) 4.2 20:18:10 10° W 20:23:32 51° NNW 20:30:10 10° NE
SL-08 R/B 4.5 20:17:51 10° N 20:24:17 80° ENE 20:25:55 53° SSE
Cosmos 1725 Rocket 3.9 20:20:03 10° NNW 20:26:16 89° W 20:27:47 55° S
ARIANE 5 R/B 3.3 20:27:13 44° WSW 20:27:31 45° W 20:31:52 10° NNW
Cosmos 1544 Rocket 3.5 20:31:55 76° WNW 20:31:55 76° WNW 20:36:15 10° N
Cosmos 2233 Rocket 3.9 20:26:57 10° N 20:33:07 74° ENE 20:34:32 54° SE
Cosmos 292 Rocket 4.1 20:31:11 10° NW 20:35:46 50° WSW 20:35:46 50° WSW
Cosmos 1666 3.9 20:33:33 10° N 20:36:01 34° NNE 20:36:01 34° NNE
Cosmos 1862 3.7 20:33:17 10° N 20:36:36 60° N 20:36:36 60° N
Cosmos 1606 3.4 20:38:29 48° N 20:38:29 48° N 20:41:12 10° N
Cosmos 1459 Rocket 4.4 20:33:36 10° NNW 20:39:28 52° W 20:41:05 41° SW
Cosmos 2082 3.6 20:34:50 10° NW 20:40:30 73° WSW 20:41:12 64° SSW
Cosmos 2263 Rocket 2.1 20:41:11 10° NW 20:46:47 66° WSW 20:47:19 62° SSW
NOSS 3-2 (C) 4.0 20:39:52 10° NW 20:46:48 75° NE 20:51:57 25° ESE
ATLAS 3B R/B 3.4 20:39:51 10° WSW 20:47:07 60° NNW 20:54:48 10° NE
Cosmos 1656 4.5 20:44:12 18° WSW 20:48:10 48° NW 20:53:30 10° NNE
Cosmos 1758 Rocket 4.2 20:46:03 10° NNW 20:50:12 46° W 20:50:12 46° W
Cosmos 1602 Rocket 4.1 20:46:28 10° NNW 20:50:27 49° W 20:50:27 49° W
ALOS 2 2.7 20:52:06 69° WNW 20:52:06 69° WNW 20:56:16 10° NNW
SL-19 R/B 4.2 20:46:56 10° NNE 20:52:33 79° ESE 20:53:25 64° S
Cosmos 2322 Rocket 4.3 20:55:58 13° E 20:55:58 13° E 20:58:20 10° ENE
Cosmos 1500 4.2 20:54:49 10° NNW 20:57:11 40° N 20:57:11 40° N
Spot 4 4.3 21:00:01 48° WSW 21:00:07 48° W 21:04:48 10° NNW
Lacrosse 4 Rocket 3.8 21:03:10 13° ENE 21:03:10 13° ENE 21:03:52 10° ENE
Cosmos 1763 Rocket 4.4 21:05:16 29° WSW 21:07:21 43° NW 21:12:17 10° NNE
Cosmos 1844 4.3 21:02:09 10° NNW 21:07:47 52° NE 21:10:04 33° ESE
Meteor 1-27 4.0 21:09:03 70° S 21:09:44 87° E 21:15:21 10° NNE
Uosat 12 SS-18 rocket 4.2 21:05:51 10° NW 21:10:14 74° NW 21:10:14 74° NW
Cosmos 1825 Rocket 3.9 21:07:07 10° NNW 21:11:00 58° WNW 21:11:00 58° WNW
SL-16 R/B 3.6 21:11:38 25° E 21:11:38 25° E 21:15:57 10° NE
USA 267 3.1 21:08:16 31° ESE 21:11:47 82° SSW 21:18:22 10° WNW
Cosmos 1606 Rocket 3.7 21:12:47 68° NNE 21:12:47 68° NNE 21:16:38 10° NNE
Cosmos 2058 Rocket 4.0 21:17:39 39° ENE 21:17:39 39° ENE 21:21:12 10° NNE
ATLAS CENTAUR R/B 3.7 21:16:18 10° WNW 21:16:59 13° WNW 21:16:59 13° WNW
Cosmos 2227 Rocket 4.0 21:21:53 10° WNW 21:25:27 17° W 21:25:45 17° WSW
NOSS 3-2 (A) 4.1 21:18:24 10° NW 21:25:28 58° SW 21:27:19 48° S
Cosmos 1271 Rocket 3.7 21:24:37 10° NNW 21:27:20 42° NW 21:27:20 42° NW
H-2A R/B 2.3 21:24:22 10° NNE 21:27:56 64° NE 21:27:56 64° NE
GEOS 3 Rocket 3.9 21:27:49 37° ESE 21:29:57 69° NE 21:35:13 10° NW
Cosmos 2278 4.2 21:30:50 42° ESE 21:30:53 42° ESE 21:36:12 10° NE
Cosmos 44 4.0 21:29:00 31° W 21:31:24 56° NW 21:36:35 10° NE
Cosmos 2228 4.3 21:32:00 31° WNW 21:32:13 31° WNW 21:36:01 10° N
ATLAS 5 CENTAUR R/B 3.4 21:28:51 10° WNW 21:32:15 28° N 21:36:12 10° NE
Geosat 3.9 21:33:18 75° SW 21:33:20 75° WSW 21:38:24 10° NW
Cosmos 1844 Rocket 2.7 21:27:58 10° NNW 21:33:38 76° NE 21:34:48 56° ESE
Cosmos 1076 Rocket 3.7 21:30:13 10° NNW 21:34:03 69° NNW 21:34:03 69° NNW
Cosmos 1125 Rocket 3.5 21:29:45 10° NNW 21:35:01 76° ENE 21:35:40 65° ESE
Cosmos 1980 Rocket 2.1 21:34:09 62° SW 21:35:07 81° NW 21:40:49 10° NNE
CZ-4C R/B 4.0 21:29:31 10° WNW 21:35:31 29° WSW 21:36:02 28° WSW
Cosmos 2344 4.4 21:28:09 10° WNW 21:35:32 55° NNE 21:44:53 10° E
PSLV R/B 3.6 21:31:55 10° NNE 21:36:24 86° NNE 21:36:24 86° NNE
Cosmos 2151 3.6 21:36:03 10° NNW 21:39:32 50° WNW 21:39:32 50° WNW
Cosmos 1238 Rocket 4.1 21:44:01 32° NNE 21:44:01 32° NNE 21:46:02 10° NNE
Cosmos 841 Rocket 3.9 21:43:47 48° W 21:44:44 55° WNW 21:49:49 10° NNE
USA 238 DEB 3.8 21:39:09 10° NW 21:46:19 87° NE 21:51:10 25° SE
USA 238 3.8 21:39:15 10° NW 21:46:26 87° NE 21:51:23 24° SE
Cosmos 1697 Rocket 3.6 21:43:51 26° W 21:46:36 44° NW 21:52:03 10° NNE
Helios 1A Rocket 3.3 21:49:34 59° NNE 21:49:34 59° NNE 21:53:01 10° NNW
Cosmos 2227 4.3 21:45:57 10° NW 21:51:32 56° WSW 21:51:39 56° WSW
Cosmos 1809 Rocket 4.4 21:50:40 58° SSE 21:51:53 76° E 21:58:06 10° NNE
Intercosmos 24 4.4 21:52:31 71° WSW 21:52:52 75° WNW 21:57:06 10° N
Cosmos 1726 Rocket 4.0 21:55:10 54° WNW 21:55:10 54° WNW 21:59:13 10° N
Cosmos 2369 3.7 21:54:29 56° WSW 21:55:38 74° NW 22:01:19 10° NNE
USA 229 DEB 4.2 21:54:04 14° W 21:59:41 57° NNW 22:06:47 10° NE
USA 229 4.2 21:54:13 14° WSW 21:59:46 57° NNW 22:06:53 10° NE
Cosmos-2242 3.7 22:01:13 45° E 22:01:13 45° E 22:04:59 10° NNE
Cosmos 2150 Rocket 4.0 21:56:07 10° NNW 22:01:18 74° ENE 22:02:11 59° ESE
Cosmos 2298 Rocket 4.1 21:56:35 10° NNW 22:01:56 76° ENE 22:02:58 58° SE
Cosmos 2346 Rocket 4.4 22:03:20 56° SW 22:04:41 76° WNW 22:10:58 10° N
CENTAUR R/B 3.9 21:58:41 10° WNW 22:05:54 35° WSW 22:06:56 34° SW
Meteor 1-25 Rocket 4.1 22:02:45 10° NNW 22:08:28 90° W 22:09:25 64° SSE
Meteor 1-20 Rocket 4.1 22:03:56 10° NNW 22:09:31 77° W 22:10:17 65° SSW
Cosmos 1867 4.5 22:06:02 10° NW 22:11:23 48° NNE 22:16:42 10° ESE
CZ-2C R/B 4.2 22:08:25 12° ESE 22:12:37 31° ENE 22:17:16 10° N
USA 215 3.4 22:11:17 10° ENE 22:17:41 52° SE 22:18:41 48° S
Meteor 2-14 Rocket 4.4 22:18:19 56° SSW 22:19:42 80° WNW 22:25:54 10° N
Cosmos 1464 Rocket 4.1 22:14:18 10° NNW 22:20:35 62° W 22:21:54 51° SW
Resurs 1-4 Rocket 3.9 22:17:34 10° NE 22:21:42 22° E 22:23:46 18° ESE
Aureole 3 Rocket 3.2 22:18:08 10° N 22:23:40 74° ENE 22:24:02 69° ESE
Cosmos 2333 Rocket 3.1 22:22:54 33° SE 22:23:49 35° ESE 22:28:54 10° NE
Lacrosse 5 3.4 22:26:26 23° ESE 22:26:26 23° ESE 22:29:42 10° E
Cosmos 2221 4.0 22:27:05 26° ESE 22:27:41 27° E 22:31:17 10° NNE
Cosmos 2360 Rocket 2.7 22:28:10 40° SE 22:29:05 43° ESE 22:34:25 10° NE
Cosmos 2263 Rocket 4.2 22:26:50 10° WNW 22:28:59 14° W 22:28:59 14° W
NOSS 3-4 (A) 4.4 22:29:01 26° SE 22:29:43 27° ESE 22:34:41 10° ENE
Cosmos 1766 Rocket 4.5 22:25:38 10° N 22:29:46 42° ENE 22:30:47 36° ESE
NOSS 3-4 (C) 4.4 22:29:04 26° SE 22:29:47 27° ESE 22:34:43 10° ENE
Cosmos 2278 Rocket 3.7 22:29:11 10° NNW 22:34:26 36° NE 22:39:38 10° ESE
Cosmos 1814 Rocket 4.4 22:34:20 46° W 22:35:25 56° WNW 22:40:31 10° NNE
Cosmos 1570 Rocket 3.9 22:36:43 65° S 22:37:29 83° ESE 22:42:44 10° NNE
NOSS 3-2 (C) 4.3 22:30:47 10° NW 22:37:42 46° SW 22:39:19 41° SSW
USA 32 4.0 22:37:08 62° S 22:38:03 84° E 22:43:19 10° N
Cosmos 2322 Rocket 2.3 22:37:45 52° SSE 22:38:46 62° ESE 22:44:20 10° NE
Lacrosse 4 Rocket 1.4 22:39:06 72° NNW 22:39:06 72° NNW 22:42:56 10° NE
ATLAS 3B R/B 4.0 22:32:02 10° WNW 22:39:12 44° N 22:46:38 10° ENE
Cosmos 2034 Rocket 4.0 22:33:05 10° NNW 22:39:13 64° W 22:40:37 50° SSW
Cosmos 2084 Rocket 4.4 22:38:49 10° NW 22:41:08 33° WNW 22:41:08 33° WNW
IDEFIX/ARIANE 42P 3.6 22:38:27 10° NNE 22:43:14 36° E 22:44:58 28° SE
Cosmos 1812 3.9 22:45:20 32° NW 22:45:20 32° NW 22:48:07 10° N
Cosmos 1743 3.6 22:41:18 10° N 22:44:50 40° ENE 22:45:18 38° E
BlueWalker 3 3.8 22:49:11 21° ESE 22:49:11 21° ESE 22:50:36 10° E
Cosmos 2219 Rocket 3.2 22:45:40 28° SE 22:47:10 33° ESE 22:52:06 10° NE
NOSS 2-2 (E) 4.3 22:43:36 10° NW 22:47:21 53° NNE 22:52:24 10° ESE
Cosmos 1844 4.2 22:46:29 10° NW 22:51:52 42° WSW 22:51:55 42° WSW
Cosmos 1933 3.2 22:52:13 83° NE 22:52:13 83° NE 22:56:05 10° NNE
SL-16 R/B 2.2 22:53:27 50° SW 22:55:00 78° NW 23:00:43 10° NNE
Cosmos 2058 Rocket 4.3 22:54:51 29° WNW 22:55:11 29° WNW 22:59:01 10° N
USA 267 3.6 22:55:31 40° SW 22:55:31 40° SW 23:01:28 10° WNW
NOSS 2-1 (C) 3.7 22:58:31 44° NE 22:58:31 44° NE 23:00:47 10° NE
NOSS 2-1 (E) 3.8 22:58:37 42° NE 22:58:37 42° NE 23:00:49 10° NE
Cosmos 1782 2.9 23:00:58 59° WNW 23:00:58 59° WNW 23:04:34 10° N
H-2A R/B 3.8 22:57:13 10° NNE 23:01:15 52° E 23:01:44 48° SE
NOSS 2-2 (D) 4.3 22:57:55 10° NW 23:01:36 51° NNE 23:06:31 10° ESE
H-2A R/B 4.0 23:01:01 10° NNW 23:03:48 18° NW 23:04:46 16° WNW
Cosmos 1812 Rocket 3.5 23:04:37 62° WSW 23:05:01 67° WNW 23:09:29 10° N
Cosmos 1634 Rocket 3.9 22:58:43 10° NNW 23:05:03 76° W 23:07:25 41° S
Timation 2 Rocket 4.4 23:00:41 10° NW 23:06:58 45° WSW 23:08:04 41° SW
GEOS 3 Rocket 4.2 23:08:51 37° WSW 23:08:51 37° WSW 23:13:11 10° WNW
Meteor 1-26 Rocket 4.3 23:06:37 42° S 23:08:35 74° E 23:14:25 10° NNE
ADEOS II 3.4 23:04:43 10° NNE 23:09:26 32° E 23:12:19 19° SE
Meteor 1-14 Rocket 4.3 23:05:01 10° NNW 23:10:34 73° ENE 23:13:40 27° SSE
SL-16 R/B 3.0 23:06:47 10° SE 23:12:50 60° ENE 23:18:58 10° NNW
Meteor 1-28 Rocket 4.3 23:11:21 26° ESE 23:12:53 40° ENE 23:16:20 10° N
Cosmos 2278 4.3 23:12:42 32° WSW 23:14:59 50° NW 23:20:32 10° NNE
Cosmos 2142 Rocket 4.4 23:10:26 10° N 23:16:36 84° ENE 23:20:05 28° SSE
Cosmos 1844 Rocket 3.9 23:12:30 10° NW 23:16:26 25° W 23:16:26 25° W
ATLAS 5 CENTAUR R/B 3.4 23:13:17 10° NW 23:17:12 34° NNE 23:21:52 10° E
Cosmos 1980 Rocket 3.9 23:15:53 13° W 23:19:59 27° NNW 23:24:46 10° NNE
CZ-2D R/B 2.6 23:15:20 10° NNE 23:20:35 54° E 23:23:02 30° SSE
Cosmos 1726 3.4 23:17:54 10° N 23:20:50 32° ENE 23:21:59 24° ESE
Cosmos 1461 3.1 23:20:42 10° NW 23:24:35 62° NE 23:28:22 10° ESE
NOSS 2-1 (D) 3.4 23:25:50 45° NNW 23:25:50 45° NNW 23:28:44 10° NE
Cosmos 2084 4.0 23:28:22 35° WNW 23:29:30 46° NNW 23:33:12 10° NE
Cosmos 1515 4.1 23:29:52 43° WNW 23:29:52 43° WNW 23:33:10 10° N
Cosmos 2208 Rocket 4.4 23:28:56 37° WSW 23:30:50 57° WNW 23:36:14 10° NNE
Cosmos 1900 4.4 23:28:41 10° NW 23:33:41 56° SW 23:35:34 35° S
MOZ.5/SAFIR/RUBIN 5/SL-8 4.5 23:33:38 35° WSW 23:33:50 35° W 23:38:10 10° NNW
Cosmos 1943 Rocket 3.1 23:30:20 10° NNW 23:35:51 49° NE 23:41:21 10° ESE
USA 238 DEB 4.5 23:30:24 10° WNW 23:36:49 34° WSW 23:38:30 31° SW
USA 238 4.4 23:30:30 10° WNW 23:36:56 35° WSW 23:38:43 31° SW
Cosmos 1408 Rocket 3.8 23:33:02 10° N 23:37:19 64° ENE 23:39:56 23° SSE
Cosmos 1842 Rocket 4.0 23:36:39 33° SSE 23:38:27 58° E 23:42:51 10° NNE
Cosmos-2242 4.3 23:37:49 25° W 23:38:28 26° WNW 23:42:03 10° N
COSMOS 2428 3.5 23:40:42 23° SSE 23:43:48 43° ESE 23:49:09 10° NE
IRIDIUM 104 4.2 23:38:56 10° N 23:44:11 79° W 23:46:43 31° S
Meteor 1-11 Rocket 3.9 23:40:22 10° NNW 23:46:00 73° ENE 23:51:32 10° SSE
NOSS 2-2 (C) 3.6 23:44:55 10° NW 23:48:51 87° NE 23:54:18 10° SE
Cosmos 1378 3.6 23:50:17 38° WNW 23:50:18 38° WNW 23:53:30 10° N
Cosmos 2237 Rocket 4.1 23:47:58 10° SSE 23:52:21 24° ESE 23:56:46 10° NE
CZ-2C R/B 2.7 23:49:54 29° S 23:52:37 61° WSW 23:57:57 10° NNW
Cosmos 2369 Rocket 4.5 23:48:10 10° NNW 23:52:52 26° NNE 23:57:33 10° E
IRIDIUM 114 4.3 23:48:06 10° N 23:53:19 68° W 23:55:51 31° SSW
Cosmos 1805 Rocket 4.1 23:49:21 10° N 23:53:40 58° ENE 23:57:50 11° SSE
Cosmos 1500 Rocket 3.8 23:49:53 10° N 23:54:22 70° ENE 23:57:59 15° SSE
